Location: Grange Rosano
(44.4500°N, 6.9667°E)
Time: 20:28:34
(UTC+00:00)

ADEOS II - Visible Passes

Search period start: 01 October 2022 00:00
Search period end: 11 October 2022 00:00
Orbit: 798 x 801 km, 98.6° (Epoch: 01 October)

Date Brightness Start Highest point End Pass type
(mag) Time Alt. Az. Time Alt. Az. Time Alt. Az.
01 Oct 4.6 01:08:15 10° NNE 01:09:25 16° NE 01:09:25 16° NE visible
01 Oct 3.9 02:48:16 10° N 02:50:20 20° NNW 02:50:20 20° NNW visible
02 Oct 5.0 00:42:03 10° NE 00:42:13 11° NE 00:42:13 11° NE visible
02 Oct 3.9 02:21:08 10° N 02:23:08 23° N 02:23:08 23° N visible
03 Oct 4.1 01:54:13 10° NNE 01:55:56 21° N 01:55:56 21° N visible
03 Oct 4.2 03:36:11 10° NNW 03:36:51 11° NW 03:36:51 11° NW visible
04 Oct 4.5 01:27:29 10° NNE 01:28:44 17° NNE 01:28:44 17° NNE visible
04 Oct 4.1 03:08:10 10° NNW 03:09:40 16° NNW 03:09:40 16° NNW visible
05 Oct 4.9 01:01:01 10° NNE 01:01:33 13° NNE 01:01:33 13° NNE visible
05 Oct 4.0 02:40:48 10° N 02:42:28 19° NNW 02:42:28 19° NNW visible
06 Oct 4.1 02:13:43 10° N 02:15:17 20° N 02:15:17 20° N visible
07 Oct 4.4 01:46:51 10° NNE 01:48:04 17° NNE 01:48:04 17° NNE visible
07 Oct 4.3 03:28:22 10° NNW 03:28:59 12° NNW 03:28:59 12° NNW visible
08 Oct 4.8 01:20:12 10° NNE 01:20:53 14° NNE 01:20:53 14° NNE visible
08 Oct 4.2 03:00:36 10° NNW 03:01:47 15° NNW 03:01:47 15° NNW visible
09 Oct 4.2 02:33:20 10° N 02:34:36 17° N 02:34:36 17° N visible
10 Oct 4.4 02:06:19 10° N 02:07:23 16° N 02:07:23 16° N visible
